Location: Borowce
(50.8255°N, 19.6209°E)
Time: 22:49:19
(UTC+00:00)

Nadezhda 1 Rocket - Pass Details

Date: 19 May 2025
Orbit: 941 x 1003 km, 83.0° (Epoch: 16 June)

Event Time Altitude Azimuth Distance (km) Brightness Sun altitude
Rises 19:48:30 0° 195° (SSW) 3,598 6.6 -10.0°
Reaches altitude 10° 19:50:59 10° 197° (SSW) 2,662 6.0 -10.3°
Maximum altitude 19:57:02 71° 281° (WNW) 1,009 4.3 -10.9°
Drops below altitude 10° 20:03:14 10° 7° (N) 2,714 7.0 -11.5°
Sets 20:05:48 0° 9° (N) 3,674 7.7 -11.7°
